| time (UTC) | temp F | wind direction | speed knots | gust knots | rain 1hr in | rain 24hr in | rain mn in | humidity % | barometer mb |
| 20260505123025 | 58 | 318 | 0.9 | 4.3 | 0.00 | 0.00 | 0.00 | 61 | 1021.9 |
| 20260505122125 | 59 | 333 | 0.9 | 4.3 | 0.00 | 0.00 | 0.00 | 60 | 1021.8 |
| 20260505120325 | 59 | 293 | 0.0 | 2.6 | 0.00 | 0.00 | 0.00 | 61 | 1021.8 |
| 20260505115425 | 60 | 304 | 2.6 | 4.3 | 0.00 | 0.00 | 0.00 | 60 | 1021.7 |
| 20260505114525 | 60 | 323 | 2.6 | 5.2 | 0.00 | 0.00 | 0.00 | 58 | 1021.5 |
| 20260505113625 | 61 | 319 | 0.9 | 4.3 | 0.00 | 0.00 | 0.00 | 56 | 1021.3 |
| 20260505112725 | 61 | 299 | 0.9 | 4.3 | 0.00 | 0.00 | 0.00 | 53 | 1021.3 |
| 20260505111826 | 62 | 240 | 1.7 | 7.0 | 0.00 | 0.00 | 0.00 | 52 | 1021.0 |
| 20260505101525 | 63 | 219 | 4.3 | 12.2 | 0.00 | 0.00 | 0.00 | 50 | 1019.8 |
| 20260505100625 | 64 | 218 | 4.3 | 9.6 | 0.00 | 0.00 | 0.00 | 51 | 1019.7 |
| 20260505095725 | 64 | 219 | 3.5 | 8.7 | 0.00 | 0.00 | 0.00 | 50 | 1019.4 |
| 20260505094825 | 64 | 212 | 3.5 | 11.3 | 0.00 | 0.00 | 0.00 | 50 | 1019.3 |
| 20260505093025 | 65 | 215 | 5.2 | 12.2 | 0.00 | 0.00 | 0.00 | 50 | 1019.0 |
| 20260505092125 | 66 | 224 | 4.3 | 13.0 | 0.00 | 0.00 | 0.00 | 49 | 1018.8 |
| 20260505091225 | 66 | 213 | 3.5 | 9.6 | 0.00 | 0.00 | 0.00 | 50 | 1018.6 |
| 20260505090326 | 67 | 215 | 5.2 | 10.4 | 0.00 | 0.00 | 0.00 | 49 | 1018.4 |
| 20260505085425 | 67 | 212 | 4.3 | 12.2 | 0.00 | 0.00 | 0.00 | 49 | 1018.3 |
| 20260505084525 | 68 | 217 | 5.2 | 13.0 | 0.00 | 0.00 | 0.00 | 49 | 1018.1 |
| 20260505083625 | 68 | 218 | 6.1 | 11.3 | 0.00 | 0.00 | 0.00 | 48 | 1018.0 |
| 20260505082725 | 68 | 217 | 5.2 | 13.9 | 0.00 | 0.00 | 0.00 | 47 | 1017.9 |
| 20260505080925 | 69 | 216 | 5.2 | 12.2 | 0.00 | 0.00 | 0.00 | 47 | 1017.8 |
| 20260505080025 | 69 | 222 | 6.1 | 13.0 | 0.00 | 0.00 | 0.00 | 46 | 1017.7 |
| 20260505075125 | 70 | 218 | 7.0 | 13.9 | 0.00 | 0.00 | 0.00 | 46 | 1017.6 |
| 20260505074225 | 70 | 217 | 7.0 | 15.6 | 0.00 | 0.00 | 0.00 | 45 | 1017.5 |
| 20260505073325 | 71 | 221 | 7.0 | 12.2 | 0.00 | 0.00 | 0.00 | 44 | 1017.4 |
| 20260505072425 | 71 | 225 | 6.1 | 13.9 | 0.00 | 0.00 | 0.00 | 43 | 1017.4 |
| 20260505071525 | 71 | 226 | 6.1 | 12.2 | 0.00 | 0.00 | 0.00 | 42 | 1017.2 |
| 20260505070625 | 72 | 218 | 6.1 | 13.0 | 0.00 | 0.00 | 0.00 | 42 | 1017.1 |
| 20260505065725 | 72 | 228 | 6.1 | 12.2 | 0.00 | 0.00 | 0.00 | 42 | 1017.0 |
| 20260505064825 | 73 | 231 | 5.2 | 13.0 | 0.00 | 0.00 | 0.00 | 40 | 1017.0 |
| 20260505063925 | 74 | 224 | 5.2 | 11.3 | 0.00 | 0.00 | 0.00 | 39 | 1017.0 |
| 20260505063025 | 74 | 222 | 5.2 | 11.3 | 0.00 | 0.00 | 0.00 | 38 | 1016.9 |
| 20260505062125 | 75 | 231 | 5.2 | 10.4 | 0.00 | 0.00 | 0.00 | 37 | 1016.8 |
| 20260505061225 | 76 | 214 | 3.5 | 9.6 | 0.00 | 0.00 | 0.00 | 35 | 1016.7 |
| 20260505060325 | 76 | 196 | 3.5 | 8.7 | 0.00 | 0.00 | 0.00 | 31 | 1016.7 |
| 20260505055426 | 76 | 227 | 2.6 | 7.0 | 0.00 | 0.00 | 0.00 | 29 | 1016.6 |
| 20260505054525 | 75 | 201 | 3.5 | 10.4 | 0.00 | 0.00 | 0.00 | 27 | 1016.8 |
| 20260505053625 | 76 | 215 | 3.5 | 7.0 | 0.00 | 0.00 | 0.00 | 23 | 1016.8 |
| 20260505052725 | 76 | 208 | 1.7 | 6.1 | 0.00 | 0.00 | 0.00 | 22 | 1016.8 |
| 20260505050925 | 76 | 178 | 1.7 | 5.2 | 0.00 | 0.00 | 0.00 | 18 | 1016.9 |
| 20260505041525 | 77 | 357 | 2.6 | 7.0 | 0.00 | 0.00 | 0.00 | 22 | 1017.7 |
| 20260505040624 | 75 | 302 | 5.2 | 10.4 | 0.00 | 0.00 | 0.00 | 24 | 1017.8 |
| 20260505035725 | 74 | 271 | 1.7 | 7.8 | 0.00 | 0.00 | 0.00 | 22 | 1017.8 |
| 20260505034825 | 74 | 228 | 1.7 | 7.0 | 0.00 | 0.00 | 0.00 | 22 | 1017.9 |
| 20260505033925 | 74 | 201 | 1.7 | 7.0 | 0.00 | 0.00 | 0.00 | 24 | 1018.0 |
| 20260505033025 | 74 | 41 | 0.9 | 2.6 | 0.00 | 0.00 | 0.00 | 22 | 1018.1 |
| 20260505031226 | 71 | 208 | 0.9 | 5.2 | 0.00 | 0.00 | 0.00 | 25 | 1018.3 |
| 20260505030325 | 70 | 266 | 0.9 | 5.2 | 0.00 | 0.00 | 0.00 | 26 | 1018.4 |
| 20260505025426 | 70 | 150 | 2.6 | 7.0 | 0.00 | 0.00 | 0.00 | 24 | 1018.4 |
| 20260505024525 | 70 | 128 | 2.6 | 7.0 | 0.00 | 0.00 | 0.00 | 26 | 1018.5 |
| 20260505023625 | 70 | 193 | 2.6 | 7.0 | 0.00 | 0.00 | 0.00 | 25 | 1018.4 |
| 20260505022725 | 69 | 179 | 1.7 | 5.2 | 0.00 | 0.00 | 0.00 | 26 | 1018.6 |
| 20260505021825 | 69 | 165 | 3.5 | 7.8 | 0.00 | 0.00 | 0.00 | 26 | 1018.8 |
| 20260505020025 | 68 | 135 | 1.7 | 6.1 | 0.00 | 0.00 | 0.00 | 28 | 1018.9 |
| 20260505015125 | 68 | 153 | 1.7 | 4.3 | 0.00 | 0.00 | 0.00 | 28 | 1019.0 |
| 20260505014226 | 67 | 190 | 1.7 | 5.2 | 0.00 | 0.00 | 0.00 | 28 | 1019.0 |
| 20260505013325 | 68 | 191 | 1.7 | 6.1 | 0.00 | 0.00 | 0.00 | 29 | 1019.0 |
| 20260505012425 | 67 | 199 | 0.9 | 3.5 | 0.00 | 0.00 | 0.00 | 29 | 1019.1 |
| 20260505011525 | 67 | 67 | 1.7 | 4.3 | 0.00 | 0.00 | 0.00 | 30 | 1019.2 |
| 20260505010625 | 65 | 55 | 0.9 | 4.3 | 0.00 | 0.00 | 0.00 | 33 | 1019.2 |
| 20260505005726 | 64 | 117 | 0.0 | 0.9 | 0.00 | 0.00 | 0.00 | 32 | 1019.3 |
| 20260505004825 | 63 | 223 | 0.9 | 3.5 | 0.00 | 0.00 | 0.00 | 34 | 1019.3 |
| 20260505003926 | 63 | 208 | 1.7 | 6.1 | 0.00 | 0.00 | 0.00 | 34 | 1019.4 |
| 20260505003024 | 64 | 187 | 0.9 | 4.3 | 0.00 | 0.00 | 0.00 | 35 | 1019.2 |
| 20260505002124 | 63 | 272 | 1.7 | 6.1 | 0.00 | 0.00 | 0.00 | 37 | 1019.2 |
| 20260505001224 | 62 | 223 | 1.7 | 5.2 | 0.00 | 0.00 | 0.00 | 36 | 1019.3 |
| 20260504235425 | 64 | 78 | 0.9 | 4.3 | 0.00 | 0.00 | 0.00 | 37 | 1019.4 |
| 20260504234526 | 62 | 36 | 0.9 | 6.1 | 0.00 | 0.00 | 0.00 | 42 | 1019.4 |
| 20260504233625 | 62 | 86 | 1.7 | 6.1 | 0.00 | 0.00 | 0.00 | 39 | 1019.4 |
| 20260504232725 | 61 | 95 | 1.7 | 6.1 | 0.00 | 0.00 | 0.00 | 41 | 1019.5 |
| 20260504231825 | 60 | 156 | 1.7 | 5.2 | 0.00 | 0.00 | 0.00 | 41 | 1019.6 |
| 20260504230925 | 60 | 118 | 1.7 | 5.2 | 0.00 | 0.00 | 0.00 | 43 | 1019.7 |
| 20260504225126 | 58 | 155 | 2.6 | 7.0 | 0.00 | 0.00 | 0.00 | 46 | 1019.5 |
| 20260504224225 | 57 | 171 | 2.6 | 6.1 | 0.00 | 0.00 | 0.00 | 47 | 1019.4 |
| 20260504223325 | 58 | 144 | 3.5 | 6.1 | 0.00 | 0.00 | 0.00 | 47 | 1019.4 |
| 20260504222425 | 58 | 162 | 1.7 | 5.2 | 0.00 | 0.00 | 0.00 | 47 | 1019.2 |
| 20260504221525 | 57 | 132 | 0.9 | 3.5 | 0.00 | 0.01 | 0.00 | 49 | 1019.2 |
| 20260504220625 | 57 | 139 | 0.9 | 3.5 | 0.00 | 0.01 | 0.00 | 48 | 1019.1 |
| 20260504215724 | 56 | 0 | 0.0 | 0.0 | 0.00 | 0.01 | 0.00 | 50 | 1019.1 |
| 20260504214825 | 54 | 214 | 0.0 | 3.5 | 0.00 | 0.01 | 0.00 | 50 | 1019.0 |
| 20260504213925 | 54 | 178 | 0.0 | 1.7 | 0.00 | 0.01 | 0.00 | 50 | 1018.9 |
| 20260504213025 | 54 | 155 | 0.0 | 1.7 | 0.00 | 0.03 | 0.00 | 53 | 1018.7 |
| 20260504212125 | 53 | 168 | 0.9 | 3.5 | 0.00 | 0.03 | 0.00 | 54 | 1018.7 |
| 20260504211225 | 52 | 197 | 0.9 | 3.5 | 0.00 | 0.03 | 0.00 | 52 | 1018.4 |
| 20260504210325 | 51 | 278 | 0.0 | 3.5 | 0.00 | 0.03 | 0.00 | 51 | 1018.2 |
| 20260504204525 | 51 | 0 | 0.0 | 0.0 | 0.00 | 0.04 | 0.00 | 53 | 1017.8 |
| 20260504203625 | 49 | 310 | 0.9 | 2.6 | 0.00 | 0.04 | 0.00 | 55 | 1017.6 |
| 20260504202726 | 49 | 314 | 0.9 | 2.6 | 0.00 | 0.04 | 0.00 | 53 | 1017.3 |
| 20260504201825 | 50 | 295 | 0.0 | 1.7 | 0.00 | 0.04 | 0.00 | 54 | 1017.2 |
| 20260504200925 | 50 | 296 | 2.6 | 6.1 | 0.00 | 0.05 | 0.00 | 55 | 1016.9 |
| 20260504200025 | 51 | 311 | 2.6 | 7.0 | 0.00 | 0.05 | 0.00 | 52 | 1016.7 |
| 20260504195125 | 52 | 333 | 3.5 | 7.0 | 0.00 | 0.05 | 0.00 | 44 | 1016.5 |
| 20260504194225 | 53 | 357 | 5.2 | 9.6 | 0.00 | 0.06 | 0.00 | 43 | 1016.3 |
| 20260504193325 | 53 | 355 | 5.2 | 10.4 | 0.00 | 0.07 | 0.00 | 43 | 1016.2 |
| 20260504192425 | 53 | 4 | 6.1 | 10.4 | 0.00 | 0.08 | 0.00 | 44 | 1015.8 |
| 20260504191525 | 53 | 4 | 6.1 | 11.3 | 0.00 | 0.09 | 0.00 | 44 | 1015.7 |
| 20260504190625 | 53 | 2 | 7.0 | 11.3 | 0.00 | 0.11 | 0.00 | 45 | 1015.5 |
| 20260504184825 | 53 | 8 | 7.8 | 13.0 | 0.00 | 0.16 | 0.00 | 47 | 1015.1 |
| 20260504183025 | 54 | 19 | 8.7 | 18.2 | 0.00 | 0.21 | 0.00 | 47 | 1014.4 |
| 20260504182125 | 54 | 15 | 9.6 | 18.2 | 0.00 | 0.24 | 0.00 | 47 | 1014.1 |
| 20260504181225 | 54 | 9 | 9.6 | 19.1 | 0.00 | 0.29 | 0.00 | 48 | 1013.8 |
| 20260504180325 | 54 | 16 | 9.6 | 19.1 | 0.00 | 0.30 | 0.00 | 48 | 1013.6 |
| 20260504175425 | 54 | 7 | 9.6 | 20.0 | 0.00 | 0.32 | 0.00 | 49 | 1013.6 |
| 20260504174525 | 54 | 8 | 11.3 | 21.7 | 0.00 | 0.36 | 0.00 | 50 | 1013.2 |
| 20260504173625 | 55 | 8 | 12.2 | 20.0 | 0.00 | 0.38 | 0.00 | 50 | 1012.9 |
| 20260504171825 | 55 | 353 | 11.3 | 21.7 | 0.00 | 0.42 | 0.00 | 51 | 1012.3 |
| 20260504170925 | 56 | 7 | 13.9 | 23.5 | 0.00 | 0.44 | 0.00 | 51 | 1011.9 |
| 20260504150325 | 59 | 352 | 14.8 | 24.3 | 0.00 | 0.52 | 0.00 | 45 | 1009.0 |
| 20260504130625 | 62 | 359 | 14.8 | 27.8 | 0.00 | 0.55 | 0.52 | 40 | 1006.1 |